Weather History for Delaware, OH

Change the Weather History Date:

Thursday, January 3, 2013

  Actual Average Record
Temperature  
Mean Temperature 16 °F -  
Max Temperature 30 °F 35 °F 59 °F (1939)
Min Temperature 1 °F 18 °F -4 °F (1979)
Degree Days  
Heating Degree Days 50    
Moisture  
Dew Point 13 °F    
Average Humidity 78    
Maximum Humidity 93    
Minimum Humidity 47    
Precipitation  
Precipitation 0.00 in - - ()
Sea Level Pressure  
Sea Level Pressure 30.20 in    
Wind  
Wind Speed 4 mph (SW)    
Max Wind Speed 17 mph    
Max Gust Speed 22 mph    
Visibility 8 miles    
Events Fog    
Averages and records for this station are not official NWS values.
T = Trace of Precipitation, MM = Missing Value Source: NWS Daily Summary

Daily Weather History Graph

Daily Weather History Graph

Search for Another Location

Airport:

Trip Planner

Search our weather history database for the weather conditions in past years. The results will help you decide how hot, cold, wet, or windy it might be!

Date:

Astronomy

Jan. 03, 2013 Rise Set
Actual Time 7:55 AM EST 5:19 PM EST
Civil Twilight 7:24 AM EST 5:49 PM EST
Nautical Twilight 6:50 AM EST 6:23 PM EST
Astronomical Twilight 6:17 AM EST 6:56 PM EST
Moon 11:54 PM EST (1/3) 11:05 AM EST (1/3)
Length of Visible Light 10h 24m
Length of Day
9h 23m
Waning Gibbous, 65% of the Moon is Illuminated
Jan 3
Waning Gibbous
Jan 4
Last Quarter
Jan 11
New
Jan 18
First Quarter
Jan 26
Full

Hourly Weather History & Observations

Time (EST) Temp. Windchill Dew Point Humidity Pressure Visibility Wind Dir Wind Speed Gust Speed Precip Events Conditions
12:02 AM 8.6 °F - 5.0 °F 85% 30.20 in 0.8 mi Calm Calm - N/A   Mostly Cloudy
12:22 AM 8.6 °F - 5.0 °F 85% 30.20 in 1.5 mi Calm Calm - N/A   Mist
12:41 AM 5.0 °F - 3.2 °F 92% 30.20 in 1.0 mi Calm Calm - N/A   Mist
1:02 AM 3.2 °F - 1.4 °F 92% 30.20 in 0.2 mi Calm Calm - N/A Fog Light Freezing Fog
1:21 AM 5.0 °F - 1.4 °F 85% 30.20 in 0.2 mi Calm Calm - N/A Fog Light Freezing Fog
1:41 AM 6.8 °F - 3.2 °F 85% 30.20 in 1.2 mi Calm Calm - N/A   Mist
2:02 AM 5.0 °F -2.1 °F 1.4 °F 85% 30.19 in 0.8 mi South 3.5 mph - N/A   Mist
2:22 AM 1.4 °F -6.2 °F -0.4 °F 92% 30.19 in 1.5 mi South 3.5 mph - N/A   Mostly Cloudy
3:02 AM 5.0 °F - 3.2 °F 92% 30.19 in 2.5 mi Calm Calm - N/A   Overcast
3:21 AM 5.0 °F - 3.2 °F 92% 30.20 in 1.5 mi Calm Calm - N/A   Mostly Cloudy
3:41 AM 5.0 °F -2.1 °F 3.2 °F 92% 30.18 in 3.0 mi SSE 3.5 mph - N/A   Mostly Cloudy
4:02 AM 5.0 °F -2.1 °F 3.2 °F 92% 30.18 in 4.0 mi SSE 3.5 mph - N/A   Mostly Cloudy
4:21 AM 6.8 °F - 5.0 °F 92% 30.18 in 4.0 mi Calm Calm - N/A   Scattered Clouds
4:41 AM 5.0 °F - 3.2 °F 92% 30.18 in 5.0 mi Calm Calm - N/A   Mostly Cloudy
5:02 AM 6.8 °F - 5.0 °F 92% 30.17 in 3.0 mi Calm Calm - N/A   Mist
5:21 AM 5.0 °F - 1.4 °F 85% 30.18 in 3.0 mi Calm Calm - N/A   Mist
5:42 AM 3.2 °F -4.2 °F 1.4 °F 92% 30.17 in 3.0 mi South 3.5 mph - N/A   Mist
6:02 AM 8.6 °F 2.0 °F 5.0 °F 85% 30.18 in 5.0 mi South 3.5 mph - N/A   Scattered Clouds
6:21 AM 8.6 °F 0.1 °F 6.8 °F 92% 30.18 in 7.0 mi South 4.6 mph - N/A   Mostly Cloudy
6:42 AM 8.6 °F 2.0 °F 6.8 °F 92% 30.19 in 7.0 mi South 3.5 mph - N/A   Scattered Clouds
7:02 AM 8.6 °F - 5.0 °F 85% 30.20 in 7.0 mi Calm Calm - N/A   Mostly Cloudy
7:21 AM 8.6 °F 2.0 °F 5.0 °F 85% 30.20 in 5.0 mi South 3.5 mph - N/A   Mostly Cloudy
7:42 AM 8.6 °F 0.1 °F 6.8 °F 92% 30.19 in 7.0 mi South 4.6 mph - N/A   Mostly Cloudy
8:02 AM 8.6 °F 2.0 °F 5.0 °F 85% 30.19 in 7.0 mi South 3.5 mph - N/A   Overcast
8:21 AM 8.6 °F 2.0 °F 5.0 °F 85% 30.19 in 7.0 mi South 3.5 mph - N/A   Scattered Clouds
8:42 AM 8.6 °F 2.0 °F 5.0 °F 85% 30.19 in 7.0 mi South 3.5 mph - N/A   Scattered Clouds
9:02 AM 8.6 °F - 5.0 °F 85% 30.18 in 10.0 mi Calm Calm - N/A   Clear
9:21 AM 10.4 °F - 8.6 °F 92% 30.18 in 10.0 mi Calm Calm - N/A   Clear
9:42 AM 12.2 °F 2.9 °F 10.4 °F 92% 30.19 in 10.0 mi SSW 5.8 mph - N/A   Clear
10:01 AM 14.0 °F 2.0 °F 12.2 °F 93% 30.20 in 10.0 mi SSW 9.2 mph - N/A   Clear
10:42 AM 17.6 °F 6.4 °F 14.0 °F 86% 30.20 in 10.0 mi SW 9.2 mph - N/A   Clear
11:01 AM 19.4 °F 7.2 °F 12.2 °F 74% 30.19 in 10.0 mi SW 11.5 mph - N/A   Clear
11:21 AM 23.0 °F 13.1 °F 10.4 °F 59% 30.19 in 10.0 mi SW 9.2 mph - N/A   Clear
11:42 AM 24.8 °F 14.0 °F 10.4 °F 54% 30.18 in 10.0 mi SW 11.5 mph - N/A   Clear
12:01 PM 26.6 °F 16.8 °F 10.4 °F 51% 30.18 in 10.0 mi SW 10.4 mph - N/A   Clear
12:21 PM 26.6 °F 17.5 °F 10.4 °F 51% 30.17 in 10.0 mi WSW 9.2 mph 17.3 mph N/A   Clear
12:42 PM 28.4 °F 19.1 °F 10.4 °F 47% 30.17 in 10.0 mi WSW 10.4 mph 17.3 mph N/A   Clear
1:01 PM 28.4 °F 20.4 °F 12.2 °F 51% 30.16 in 10.0 mi WSW 8.1 mph - N/A   Clear
1:22 PM 28.4 °F 18.5 °F 14.0 °F 55% 30.16 in 10.0 mi WSW 11.5 mph 17.3 mph N/A   Mostly Cloudy
1:42 PM 30.2 °F 21.9 °F 14.0 °F 51% 30.16 in 10.0 mi WSW 9.2 mph - N/A   Overcast
2:01 PM 30.2 °F 20.2 °F 17.6 °F 60% 30.16 in 10.0 mi West 12.7 mph - N/A   Overcast
2:22 PM 30.2 °F 18.5 °F 21.2 °F 69% 30.17 in 10.0 mi West 17.3 mph 21.9 mph N/A   Overcast
2:42 PM 30.2 °F 20.8 °F 21.2 °F 69% 30.17 in 10.0 mi West 11.5 mph - N/A   Overcast
3:01 PM 30.2 °F 19.8 °F 21.2 °F 69% 30.17 in 10.0 mi WSW 13.8 mph - N/A   Mostly Cloudy
3:22 PM 28.4 °F 19.7 °F 19.4 °F 69% 30.17 in 10.0 mi SW 9.2 mph - N/A   Scattered Clouds
3:42 PM 28.4 °F 18.5 °F 19.4 °F 69% 30.18 in 10.0 mi WSW 11.5 mph - N/A   Scattered Clouds
4:01 PM 28.4 °F 19.7 °F 21.2 °F 74% 30.19 in 10.0 mi WSW 9.2 mph - N/A   Scattered Clouds
4:22 PM 28.4 °F 21.2 °F 21.2 °F 74% 30.19 in 10.0 mi WSW 6.9 mph 16.1 mph N/A   Mostly Cloudy
4:42 PM 28.4 °F 21.2 °F 21.2 °F 74% 30.20 in 10.0 mi SW 6.9 mph - N/A   Mostly Cloudy
5:01 PM 26.6 °F 17.5 °F 19.4 °F 74% 30.21 in 10.0 mi SW 9.2 mph - N/A   Mostly Cloudy
5:22 PM 26.6 °F 16.2 °F 21.2 °F 80% 30.21 in 10.0 mi SW 11.5 mph - N/A   Mostly Cloudy
5:41 PM 26.6 °F 18.2 °F 21.2 °F 80% 30.21 in 10.0 mi SW 8.1 mph - N/A   Overcast
6:01 PM 26.6 °F 17.5 °F 21.2 °F 80% 30.22 in 10.0 mi SW 9.2 mph - N/A   Overcast
6:22 PM 26.6 °F 18.2 °F 21.2 °F 80% 30.23 in 10.0 mi WSW 8.1 mph - N/A   Overcast
6:41 PM 28.4 °F 21.2 °F 21.2 °F 74% 30.23 in 10.0 mi WSW 6.9 mph - N/A   Overcast
7:01 PM 26.6 °F 19.1 °F 21.2 °F 80% 30.23 in 10.0 mi WSW 6.9 mph - N/A   Overcast
7:22 PM 28.4 °F 19.7 °F 21.2 °F 74% 30.23 in 10.0 mi WSW 9.2 mph - N/A   Overcast
7:41 PM 28.4 °F 20.4 °F 21.2 °F 74% 30.24 in 10.0 mi WSW 8.1 mph - N/A   Overcast
8:02 PM 28.4 °F 22.2 °F 21.2 °F 74% 30.24 in 10.0 mi WSW 5.8 mph - N/A   Overcast
8:22 PM 28.4 °F 22.2 °F 21.2 °F 74% 30.24 in 10.0 mi WSW 5.8 mph - N/A   Overcast
8:41 PM 28.4 °F 21.2 °F 21.2 °F 74% 30.24 in 10.0 mi WSW 6.9 mph - N/A   Overcast
9:02 PM 28.4 °F 21.2 °F 21.2 °F 74% 30.25 in 10.0 mi WSW 6.9 mph - N/A   Overcast
9:22 PM 28.4 °F 19.7 °F 21.2 °F 74% 30.25 in 10.0 mi WSW 9.2 mph - N/A   Overcast
9:41 PM 28.4 °F 19.7 °F 21.2 °F 74% 30.25 in 10.0 mi West 9.2 mph - N/A   Overcast
10:02 PM 28.4 °F 22.2 °F 21.2 °F 74% 30.25 in 10.0 mi West 5.8 mph - N/A   Overcast
10:22 PM 28.4 °F 20.4 °F 21.2 °F 74% 30.25 in 10.0 mi WSW 8.1 mph - N/A   Overcast
10:41 PM 28.4 °F 20.4 °F 21.2 °F 74% 30.25 in 10.0 mi WSW 8.1 mph - N/A   Overcast
11:02 PM 28.4 °F 18.5 °F 21.2 °F 74% 30.25 in 10.0 mi West 11.5 mph - N/A   Overcast
11:22 PM 28.4 °F 18.5 °F 21.2 °F 74% 30.25 in 10.0 mi West 11.5 mph - N/A   Overcast
11:41 PM 28.4 °F 20.4 °F 21.2 °F 74% 30.25 in 10.0 mi West 8.1 mph - N/A   Overcast